Location: Brno
(49.2000°N, 16.6330°E)
Time: 18:12:03
(UTC+02:00)

Transit 4A - Pass Details

Date: 26 July 2021
Orbit: 871 x 974 km, 66.8° (Epoch: 16 September)

Event Time Altitude Azimuth Distance (km) Brightness Sun altitude
Rises 06:45:39 0° 307° (NW) 3,470 10.5 12.3°
Reaches altitude 10° 06:49:35 10° 333° (NNW) 2,528 10.1 12.9°
Maximum altitude 06:52:27 14° 3° (N) 2,271 10.2 13.3°
Drops below altitude 10° 06:55:20 10° 33° (NNE) 2,534 11.0 13.8°
Sets 06:59:17 0° 59° (ENE) 3,483 12.4 14.4°
